Year,Month,Day,Hour,Minute,Value (Times are PST for temperature in C)
2008,08,04,00,00,13.60
2008,08,04,00,01,13.60
2008,08,04,00,02,13.60
2008,08,04,00,03,13.60
2008,08,04,00,04,13.60
2008,08,04,00,05,13.60
2008,08,04,00,06,13.50
2008,08,04,00,07,13.50
2008,08,04,00,08,13.50
2008,08,04,00,09,13.50
2008,08,04,00,10,13.40
2008,08,04,00,11,13.40
2008,08,04,00,12,13.40
2008,08,04,00,13,13.40
2008,08,04,00,14,13.30
2008,08,04,00,15,13.30
2008,08,04,00,16,13.30
2008,08,04,00,17,13.30
2008,08,04,00,18,13.30
2008,08,04,00,19,13.20
2008,08,04,00,20,13.20
2008,08,04,00,21,13.20
2008,08,04,00,22,13.10
2008,08,04,00,23,13.10
2008,08,04,00,24,13.10
2008,08,04,00,25,13.10
2008,08,04,00,26,13.10
2008,08,04,00,27,13.10
2008,08,04,00,28,13.00
2008,08,04,00,29,13.00
2008,08,04,00,30,13.00
2008,08,04,00,31,13.00
2008,08,04,00,32,12.90
2008,08,04,00,33,12.90
2008,08,04,00,34,12.90
2008,08,04,00,35,12.90
2008,08,04,00,36,12.90
2008,08,04,00,37,12.80
2008,08,04,00,38,12.80
2008,08,04,00,39,12.80
2008,08,04,00,40,12.80
2008,08,04,00,41,12.80
2008,08,04,00,42,12.80
2008,08,04,00,43,12.80
2008,08,04,00,44,12.80
2008,08,04,00,45,12.80
2008,08,04,00,46,12.70
2008,08,04,00,47,12.70
2008,08,04,00,48,12.70
2008,08,04,00,49,12.70
2008,08,04,00,50,12.70
2008,08,04,00,51,12.70
2008,08,04,00,52,12.70
2008,08,04,00,53,12.70
2008,08,04,00,54,12.70
2008,08,04,00,55,12.70
2008,08,04,00,56,12.70
2008,08,04,00,57,12.70
2008,08,04,00,58,12.70
2008,08,04,00,59,12.70
2008,08,04,01,00,12.60
2008,08,04,01,01,12.70
2008,08,04,01,02,12.60
2008,08,04,01,03,12.60
2008,08,04,01,04,12.60
2008,08,04,01,05,12.60
2008,08,04,01,06,12.60
2008,08,04,01,07,12.60
2008,08,04,01,08,12.60
2008,08,04,01,09,12.60
2008,08,04,01,10,12.60
2008,08,04,01,11,12.70
2008,08,04,01,12,12.70
2008,08,04,01,13,12.70
2008,08,04,01,14,12.70
2008,08,04,01,15,12.70
2008,08,04,01,16,12.70
2008,08,04,01,17,12.60
2008,08,04,01,18,12.60
2008,08,04,01,19,12.60
2008,08,04,01,20,12.60
2008,08,04,01,21,12.60
2008,08,04,01,22,12.50
2008,08,04,01,23,12.50
2008,08,04,01,24,12.40
2008,08,04,01,25,12.40
2008,08,04,01,26,12.40
2008,08,04,01,27,12.40
2008,08,04,01,28,12.40
2008,08,04,01,29,12.40
2008,08,04,01,30,12.40
2008,08,04,01,31,12.40
2008,08,04,01,32,12.30
2008,08,04,01,33,12.30
2008,08,04,01,34,12.30
2008,08,04,01,35,12.30
2008,08,04,01,36,12.30
2008,08,04,01,37,12.30
2008,08,04,01,38,12.30
2008,08,04,01,39,12.20
2008,08,04,01,40,12.20
2008,08,04,01,41,12.20
2008,08,04,01,42,12.20
2008,08,04,01,43,12.20
2008,08,04,01,44,12.20
2008,08,04,01,45,12.10
2008,08,04,01,46,12.10
2008,08,04,01,47,12.10
2008,08,04,01,48,12.10
2008,08,04,01,49,12.10
2008,08,04,01,50,12.10
2008,08,04,01,51,12.00
2008,08,04,01,52,12.00
2008,08,04,01,53,12.00
2008,08,04,01,54,11.90
2008,08,04,01,55,11.90
2008,08,04,01,56,11.90
2008,08,04,01,57,11.90
2008,08,04,01,58,11.90
2008,08,04,01,59,11.90
2008,08,04,02,00,11.90
2008,08,04,02,01,11.90
2008,08,04,02,02,11.90
2008,08,04,02,03,11.80
2008,08,04,02,04,11.80
2008,08,04,02,05,11.80
2008,08,04,02,06,11.70
2008,08,04,02,07,11.70
2008,08,04,02,08,11.70
2008,08,04,02,09,11.70
2008,08,04,02,10,11.70
2008,08,04,02,11,11.70
2008,08,04,02,12,11.70
2008,08,04,02,13,11.60
2008,08,04,02,14,11.60
2008,08,04,02,15,11.60
2008,08,04,02,16,11.60
2008,08,04,02,17,11.60
2008,08,04,02,18,11.60
2008,08,04,02,19,11.60
2008,08,04,02,20,11.50
2008,08,04,02,21,11.50
2008,08,04,02,22,11.50
2008,08,04,02,23,11.50
2008,08,04,02,24,11.50
2008,08,04,02,25,11.50
2008,08,04,02,26,11.50
2008,08,04,02,27,11.50
2008,08,04,02,28,11.40
2008,08,04,02,29,11.40
2008,08,04,02,30,11.40
2008,08,04,02,31,11.40
2008,08,04,02,32,11.40
2008,08,04,02,33,11.40
2008,08,04,02,34,11.40
2008,08,04,02,35,11.40
2008,08,04,02,36,11.40
2008,08,04,02,37,11.40
2008,08,04,02,38,11.40
2008,08,04,02,39,11.40
2008,08,04,02,40,11.40
2008,08,04,02,41,11.40
2008,08,04,02,42,11.30
2008,08,04,02,43,11.30
2008,08,04,02,44,11.30
2008,08,04,02,45,11.30
2008,08,04,02,46,11.20
2008,08,04,02,47,11.20
2008,08,04,02,48,11.10
2008,08,04,02,49,11.10
2008,08,04,02,50,11.10
2008,08,04,02,51,11.10
2008,08,04,02,52,11.10
2008,08,04,02,53,11.10
2008,08,04,02,54,11.10
2008,08,04,02,55,11.10
2008,08,04,02,56,11.10
2008,08,04,02,57,11.10
2008,08,04,02,58,11.10
2008,08,04,02,59,11.10
2008,08,04,03,00,11.10
2008,08,04,03,01,11.10
2008,08,04,03,02,11.10
2008,08,04,03,03,11.10
2008,08,04,03,04,11.10
2008,08,04,03,05,11.10
2008,08,04,03,06,11.10
2008,08,04,03,07,11.10
2008,08,04,03,08,11.00
2008,08,04,03,09,11.00
2008,08,04,03,10,11.10
2008,08,04,03,11,11.10
2008,08,04,03,12,11.10
2008,08,04,03,13,11.20
2008,08,04,03,14,11.20
2008,08,04,03,15,11.20
2008,08,04,03,16,11.20
2008,08,04,03,17,11.20
2008,08,04,03,18,11.20
2008,08,04,03,19,11.20
2008,08,04,03,20,11.30
2008,08,04,03,21,11.30
2008,08,04,03,22,11.30
2008,08,04,03,23,11.30
2008,08,04,03,24,11.20
2008,08,04,03,25,11.20
2008,08,04,03,26,11.10
2008,08,04,03,27,11.10
2008,08,04,03,28,11.10
2008,08,04,03,29,11.00
2008,08,04,03,30,11.00
2008,08,04,03,31,10.90
2008,08,04,03,32,10.90
2008,08,04,03,33,10.90
2008,08,04,03,34,10.90
2008,08,04,03,35,10.90
2008,08,04,03,36,10.90
2008,08,04,03,37,10.80
2008,08,04,03,38,10.80
2008,08,04,03,39,10.80
2008,08,04,03,40,10.80
2008,08,04,03,41,10.80
2008,08,04,03,42,10.80
2008,08,04,03,43,10.80
2008,08,04,03,44,10.80
2008,08,04,03,45,10.80
2008,08,04,03,46,10.80
2008,08,04,03,47,10.80
2008,08,04,03,48,10.80
2008,08,04,03,49,10.80
2008,08,04,03,50,10.80
2008,08,04,03,51,10.80
2008,08,04,03,52,10.80
2008,08,04,03,53,10.80
2008,08,04,03,54,10.80
2008,08,04,03,55,10.80
2008,08,04,03,56,10.80
2008,08,04,03,57,10.80
2008,08,04,03,58,10.80
2008,08,04,03,59,10.80
2008,08,04,04,00,10.70
2008,08,04,04,01,10.70
2008,08,04,04,02,10.70
2008,08,04,04,03,10.70
2008,08,04,04,04,10.70
2008,08,04,04,05,10.70
2008,08,04,04,06,10.70
2008,08,04,04,07,10.70
2008,08,04,04,08,10.70
2008,08,04,04,09,10.70
2008,08,04,04,10,10.70
2008,08,04,04,11,10.70
2008,08,04,04,12,10.70
2008,08,04,04,13,10.70
2008,08,04,04,14,10.80
2008,08,04,04,15,10.80
2008,08,04,04,16,10.80
2008,08,04,04,17,10.80
2008,08,04,04,18,10.80
2008,08,04,04,19,10.70
2008,08,04,04,20,10.70
2008,08,04,04,21,10.70
2008,08,04,04,22,10.70
2008,08,04,04,23,10.70
2008,08,04,04,24,10.60
2008,08,04,04,25,10.60
2008,08,04,04,26,10.60
2008,08,04,04,27,10.60
2008,08,04,04,28,10.60
2008,08,04,04,29,10.60
2008,08,04,04,30,10.50
2008,08,04,04,31,10.50
2008,08,04,04,32,10.50
2008,08,04,04,33,10.50
2008,08,04,04,34,10.40
2008,08,04,04,35,10.50
2008,08,04,04,36,10.50
2008,08,04,04,37,10.50
2008,08,04,04,38,10.40
2008,08,04,04,39,10.40
2008,08,04,04,40,10.40
2008,08,04,04,41,10.40
2008,08,04,04,42,10.40
2008,08,04,04,43,10.40
2008,08,04,04,44,10.40
2008,08,04,04,45,10.40
2008,08,04,04,46,10.40
2008,08,04,04,47,10.40
2008,08,04,04,48,10.40
2008,08,04,04,49,10.40
2008,08,04,04,50,10.40
2008,08,04,04,51,10.40
2008,08,04,04,52,10.40
2008,08,04,04,53,10.40
2008,08,04,04,54,10.40
2008,08,04,04,55,10.40
2008,08,04,04,56,10.40
2008,08,04,04,57,10.40
2008,08,04,04,58,10.40
2008,08,04,04,59,10.40
2008,08,04,05,00,10.30
2008,08,04,05,01,10.30
2008,08,04,05,02,10.30
2008,08,04,05,03,10.20
2008,08,04,05,04,10.20
2008,08,04,05,05,10.20
2008,08,04,05,06,10.20
2008,08,04,05,07,10.20
2008,08,04,05,08,10.10
2008,08,04,05,09,10.10
2008,08,04,05,10,10.10
2008,08,04,05,11,10.10
2008,08,04,05,12,10.10
2008,08,04,05,13,10.10
2008,08,04,05,14,10.10
2008,08,04,05,15,10.00
2008,08,04,05,16,10.00
2008,08,04,05,17,10.00
2008,08,04,05,18,10.00
2008,08,04,05,19,10.00
2008,08,04,05,20,10.00
2008,08,04,05,21,10.00
2008,08,04,05,22,10.00
2008,08,04,05,23,10.00
2008,08,04,05,24,10.00
2008,08,04,05,25,10.00
2008,08,04,05,26,10.00
2008,08,04,05,27,10.00
2008,08,04,05,28,10.00
2008,08,04,05,29,10.00
2008,08,04,05,30,10.00
2008,08,04,05,31,10.00
2008,08,04,05,32,10.00
2008,08,04,05,33,10.00
2008,08,04,05,34,10.00
2008,08,04,05,35,10.00
2008,08,04,05,36,10.00
2008,08,04,05,37,10.00
2008,08,04,05,38,10.00
2008,08,04,05,39,10.00
2008,08,04,05,40,9.90
2008,08,04,05,41,9.90
2008,08,04,05,42,9.90
2008,08,04,05,43,9.90
2008,08,04,05,44,9.90
2008,08,04,05,45,9.90
2008,08,04,05,46,9.90
2008,08,04,05,47,9.90
2008,08,04,05,48,9.90
2008,08,04,05,49,9.90
2008,08,04,05,50,9.90
2008,08,04,05,51,9.90
2008,08,04,05,52,10.00
2008,08,04,05,53,10.10
2008,08,04,05,54,10.10
2008,08,04,05,55,10.10
2008,08,04,05,56,10.20
2008,08,04,05,57,10.20
2008,08,04,05,58,10.10
2008,08,04,05,59,10.10
2008,08,04,06,00,10.10
2008,08,04,06,01,10.00
2008,08,04,06,02,10.00
2008,08,04,06,03,10.00
2008,08,04,06,04,9.90
2008,08,04,06,05,9.90
2008,08,04,06,06,9.90
2008,08,04,06,07,9.90
2008,08,04,06,08,9.90
2008,08,04,06,09,9.90
2008,08,04,06,10,9.90
2008,08,04,06,11,9.90
2008,08,04,06,12,9.90
2008,08,04,06,13,9.90
2008,08,04,06,14,9.90
2008,08,04,06,15,9.90
2008,08,04,06,16,9.90
2008,08,04,06,17,9.90
2008,08,04,06,18,9.90
2008,08,04,06,19,9.90
2008,08,04,06,20,9.90
2008,08,04,06,21,9.90
2008,08,04,06,22,9.80
2008,08,04,06,23,9.80
2008,08,04,06,24,9.80
2008,08,04,06,25,9.80
2008,08,04,06,26,9.80
2008,08,04,06,27,9.90
2008,08,04,06,28,9.90
2008,08,04,06,29,9.80
2008,08,04,06,30,9.80
2008,08,04,06,31,9.90
2008,08,04,06,32,9.90
2008,08,04,06,33,9.80
2008,08,04,06,34,9.90
2008,08,04,06,35,9.90
2008,08,04,06,36,9.90
2008,08,04,06,37,9.90
2008,08,04,06,38,10.00
2008,08,04,06,39,10.00
2008,08,04,06,40,10.00
2008,08,04,06,41,10.00
2008,08,04,06,42,10.00
2008,08,04,06,43,9.90
2008,08,04,06,44,9.90
2008,08,04,06,45,9.90
2008,08,04,06,46,9.90
2008,08,04,06,47,9.90
2008,08,04,06,48,9.90
2008,08,04,06,49,9.90
2008,08,04,06,50,9.90
2008,08,04,06,51,9.90
2008,08,04,06,52,10.00
2008,08,04,06,53,10.00
2008,08,04,06,54,10.00
2008,08,04,06,55,10.00
2008,08,04,06,56,10.00
2008,08,04,06,57,10.10
2008,08,04,06,58,10.10
2008,08,04,06,59,10.10
2008,08,04,07,00,10.10
2008,08,04,07,01,10.20
2008,08,04,07,02,10.20
2008,08,04,07,03,10.20
2008,08,04,07,04,10.20
2008,08,04,07,05,10.30
2008,08,04,07,06,10.30
2008,08,04,07,07,10.40
2008,08,04,07,08,10.40
2008,08,04,07,09,10.50
2008,08,04,07,10,10.60
2008,08,04,07,11,10.70
2008,08,04,07,12,10.70
2008,08,04,07,13,10.80
2008,08,04,07,14,10.80
2008,08,04,07,15,10.90
2008,08,04,07,16,11.00
2008,08,04,07,17,11.10
2008,08,04,07,18,11.20
2008,08,04,07,19,11.20
2008,08,04,07,20,11.30
2008,08,04,07,21,11.40
2008,08,04,07,22,11.40
2008,08,04,07,23,11.50
2008,08,04,07,24,11.60
2008,08,04,07,25,11.70
2008,08,04,07,26,11.70
2008,08,04,07,27,11.80
2008,08,04,07,28,11.90
2008,08,04,07,29,11.90
2008,08,04,07,30,12.00
2008,08,04,07,31,12.10
2008,08,04,07,32,12.20
2008,08,04,07,33,12.20
2008,08,04,07,34,12.30
2008,08,04,07,35,12.40
2008,08,04,07,36,12.50
2008,08,04,07,37,12.60
2008,08,04,07,38,12.80
2008,08,04,07,39,12.80
2008,08,04,07,40,12.90
2008,08,04,07,41,13.00
2008,08,04,07,42,13.10
2008,08,04,07,43,13.20
2008,08,04,07,44,13.30
2008,08,04,07,45,13.30
2008,08,04,07,46,13.50
2008,08,04,07,47,13.60
2008,08,04,07,48,13.70
2008,08,04,07,49,13.80
2008,08,04,07,50,13.90
2008,08,04,07,51,14.00
2008,08,04,07,52,14.10
2008,08,04,07,53,14.20
2008,08,04,07,54,14.30
2008,08,04,07,55,14.40
2008,08,04,07,56,14.50
2008,08,04,07,57,14.50
2008,08,04,07,58,14.60
2008,08,04,07,59,14.60
2008,08,04,08,00,14.70
2008,08,04,08,01,14.80
2008,08,04,08,02,15.00
2008,08,04,08,03,15.00
2008,08,04,08,04,15.00
2008,08,04,08,05,15.00
2008,08,04,08,06,15.00
2008,08,04,08,07,15.00
2008,08,04,08,08,15.00
2008,08,04,08,09,15.00
2008,08,04,08,10,15.00
2008,08,04,08,11,15.00
2008,08,04,08,12,15.10
2008,08,04,08,13,15.20
2008,08,04,08,14,15.20
2008,08,04,08,15,15.30
2008,08,04,08,16,15.40
2008,08,04,08,17,15.50
2008,08,04,08,18,15.50
2008,08,04,08,19,15.60
2008,08,04,08,20,15.70
2008,08,04,08,21,15.80
2008,08,04,08,22,15.90
2008,08,04,08,23,16.00
2008,08,04,08,24,16.20
2008,08,04,08,25,16.30
2008,08,04,08,26,16.30
2008,08,04,08,27,16.40
2008,08,04,08,28,16.50
2008,08,04,08,29,16.60
2008,08,04,08,30,16.60
2008,08,04,08,31,16.60
2008,08,04,08,32,16.70
2008,08,04,08,33,16.70
2008,08,04,08,34,16.70
2008,08,04,08,35,16.70
2008,08,04,08,36,16.80
2008,08,04,08,37,16.80
2008,08,04,08,38,16.90
2008,08,04,08,39,16.90
2008,08,04,08,40,17.00
2008,08,04,08,41,17.10
2008,08,04,08,42,17.20
2008,08,04,08,43,17.30
2008,08,04,08,44,17.40
2008,08,04,08,45,17.50
2008,08,04,08,46,17.60
2008,08,04,08,47,17.70
2008,08,04,08,48,17.70
2008,08,04,08,49,17.80
2008,08,04,08,50,17.80
2008,08,04,08,51,17.70
2008,08,04,08,52,17.70
2008,08,04,08,53,17.80
2008,08,04,08,54,17.80
2008,08,04,08,55,17.80
2008,08,04,08,56,17.80
2008,08,04,08,57,17.80
2008,08,04,08,58,17.80
2008,08,04,08,59,17.80
2008,08,04,09,00,17.80
2008,08,04,09,01,17.70
2008,08,04,09,02,17.70
2008,08,04,09,03,17.80
2008,08,04,09,04,17.80
2008,08,04,09,05,17.90
2008,08,04,09,06,17.90
2008,08,04,09,07,17.90
2008,08,04,09,08,17.90
2008,08,04,09,09,17.90
2008,08,04,09,10,17.90
2008,08,04,09,11,17.90
2008,08,04,09,12,17.90
2008,08,04,09,13,17.90
2008,08,04,09,14,17.90
2008,08,04,09,15,17.90
2008,08,04,09,16,18.00
2008,08,04,09,17,18.00
2008,08,04,09,18,17.90
2008,08,04,09,19,17.90
2008,08,04,09,20,17.90
2008,08,04,09,21,17.90
2008,08,04,09,22,18.00
2008,08,04,09,23,18.00
2008,08,04,09,24,18.10
2008,08,04,09,25,18.20
2008,08,04,09,26,18.20
2008,08,04,09,27,18.20
2008,08,04,09,28,18.20
2008,08,04,09,29,18.20
2008,08,04,09,30,18.20
2008,08,04,09,31,18.10
2008,08,04,09,32,18.10
2008,08,04,09,33,18.10
2008,08,04,09,34,18.10
2008,08,04,09,35,18.10
2008,08,04,09,36,18.10
2008,08,04,09,37,18.20
2008,08,04,09,38,18.30
2008,08,04,09,39,18.30
2008,08,04,09,40,18.30
2008,08,04,09,41,18.30
2008,08,04,09,42,18.20
2008,08,04,09,43,18.30
2008,08,04,09,44,18.30
2008,08,04,09,45,18.30
2008,08,04,09,46,18.30
2008,08,04,09,47,18.30
2008,08,04,09,48,18.30
2008,08,04,09,49,18.30
2008,08,04,09,50,18.30
2008,08,04,09,51,18.30
2008,08,04,09,52,18.30
2008,08,04,09,53,18.30
2008,08,04,09,54,18.30
2008,08,04,09,55,18.40
2008,08,04,09,56,18.40
2008,08,04,09,57,18.40
2008,08,04,09,58,18.40
2008,08,04,09,59,18.40
2008,08,04,10,00,18.40
2008,08,04,10,01,18.40
2008,08,04,10,02,18.30
2008,08,04,10,03,18.30
2008,08,04,10,04,18.30
2008,08,04,10,05,18.30
2008,08,04,10,06,18.40
2008,08,04,10,07,18.40
2008,08,04,10,08,18.50
2008,08,04,10,09,18.50
2008,08,04,10,10,18.50
2008,08,04,10,11,18.50
2008,08,04,10,12,18.60
2008,08,04,10,13,18.60
2008,08,04,10,14,18.60
2008,08,04,10,15,18.60
2008,08,04,10,16,18.70
2008,08,04,10,17,18.70
2008,08,04,10,18,18.80
2008,08,04,10,19,18.90
2008,08,04,10,20,18.90
2008,08,04,10,21,18.90
2008,08,04,10,22,18.90
2008,08,04,10,23,18.90
2008,08,04,10,24,18.90
2008,08,04,10,25,19.00
2008,08,04,10,26,19.10
2008,08,04,10,27,19.10
2008,08,04,10,28,19.20
2008,08,04,10,29,19.20
2008,08,04,10,30,19.30
2008,08,04,10,31,19.30
2008,08,04,10,32,19.30
2008,08,04,10,33,19.30
2008,08,04,10,34,19.20
2008,08,04,10,35,19.10
2008,08,04,10,36,19.10
2008,08,04,10,37,19.00
2008,08,04,10,38,19.10
2008,08,04,10,39,19.10
2008,08,04,10,40,19.20
2008,08,04,10,41,19.30
2008,08,04,10,42,19.40
2008,08,04,10,43,19.50
2008,08,04,10,44,19.60
2008,08,04,10,45,19.60
2008,08,04,10,46,19.60
2008,08,04,10,47,19.70
2008,08,04,10,48,19.70
2008,08,04,10,49,19.70
2008,08,04,10,50,19.60
2008,08,04,10,51,19.60
2008,08,04,10,52,19.60
2008,08,04,10,53,19.60
2008,08,04,10,54,19.60
2008,08,04,10,55,19.60
2008,08,04,10,56,19.50
2008,08,04,10,57,19.50
2008,08,04,10,58,19.50
2008,08,04,10,59,19.40
2008,08,04,11,00,19.30
2008,08,04,11,01,19.30
2008,08,04,11,02,19.30
2008,08,04,11,03,19.30
2008,08,04,11,04,19.30
2008,08,04,11,05,19.30
2008,08,04,11,06,19.40
2008,08,04,11,07,19.50
2008,08,04,11,08,19.50
2008,08,04,11,09,19.50
2008,08,04,11,10,19.30
2008,08,04,11,11,19.20
2008,08,04,11,12,19.20
2008,08,04,11,13,19.20
2008,08,04,11,14,19.20
2008,08,04,11,15,19.20
2008,08,04,11,16,19.20
2008,08,04,11,17,19.30
2008,08,04,11,18,19.30
2008,08,04,11,19,19.30
2008,08,04,11,20,19.30
2008,08,04,11,21,19.30
2008,08,04,11,22,19.30
2008,08,04,11,23,19.40
2008,08,04,11,24,19.50
2008,08,04,11,25,19.60
2008,08,04,11,26,19.60
2008,08,04,11,27,19.60
2008,08,04,11,28,19.60
2008,08,04,11,29,19.60
2008,08,04,11,30,19.60
2008,08,04,11,31,19.70
2008,08,04,11,32,19.70
2008,08,04,11,33,19.70
2008,08,04,11,34,19.80
2008,08,04,11,35,19.80
2008,08,04,11,36,19.80
2008,08,04,11,37,19.70
2008,08,04,11,38,19.70
2008,08,04,11,39,19.70
2008,08,04,11,40,19.80
2008,08,04,11,41,19.90
2008,08,04,11,42,19.90
2008,08,04,11,43,19.90
2008,08,04,11,44,19.80
2008,08,04,11,45,19.80
2008,08,04,11,46,19.80
2008,08,04,11,47,19.90
2008,08,04,11,48,19.80
2008,08,04,11,49,19.80
2008,08,04,11,50,19.80
2008,08,04,11,51,19.80
2008,08,04,11,52,19.90
2008,08,04,11,53,19.90
2008,08,04,11,54,19.80
2008,08,04,11,55,19.80
2008,08,04,11,56,19.80
2008,08,04,11,57,19.80
2008,08,04,11,58,19.90
2008,08,04,11,59,20.00
2008,08,04,12,00,20.10
2008,08,04,12,01,19.90
2008,08,04,12,02,19.80
2008,08,04,12,03,19.70
2008,08,04,12,04,19.80
2008,08,04,12,05,19.80
2008,08,04,12,06,19.90
2008,08,04,12,07,20.00
2008,08,04,12,08,20.20
2008,08,04,12,09,20.20
2008,08,04,12,10,20.30
2008,08,04,12,11,20.30
2008,08,04,12,12,20.20
2008,08,04,12,13,20.20
2008,08,04,12,14,20.20
2008,08,04,12,15,20.30
2008,08,04,12,16,20.40
2008,08,04,12,17,20.50
2008,08,04,12,18,20.60
2008,08,04,12,19,20.60
2008,08,04,12,20,20.50
2008,08,04,12,21,20.50
2008,08,04,12,22,20.40
2008,08,04,12,23,20.50
2008,08,04,12,24,20.60
2008,08,04,12,25,20.70
2008,08,04,12,26,20.70
2008,08,04,12,27,20.80
2008,08,04,12,28,20.90
2008,08,04,12,29,21.00
2008,08,04,12,30,21.10
2008,08,04,12,31,21.20
2008,08,04,12,32,21.20
2008,08,04,12,33,21.20
2008,08,04,12,34,21.10
2008,08,04,12,35,21.10
2008,08,04,12,36,20.90
2008,08,04,12,37,20.90
2008,08,04,12,38,20.90
2008,08,04,12,39,20.90
2008,08,04,12,40,20.90
2008,08,04,12,41,20.90
2008,08,04,12,42,21.00
2008,08,04,12,43,21.00
2008,08,04,12,44,21.10
2008,08,04,12,45,21.20
2008,08,04,12,46,21.10
2008,08,04,12,47,21.10
2008,08,04,12,48,21.20
2008,08,04,12,49,21.30
2008,08,04,12,50,21.20
2008,08,04,12,51,21.10
2008,08,04,12,52,21.10
2008,08,04,12,53,21.10
2008,08,04,12,54,21.10
2008,08,04,12,55,21.10
2008,08,04,12,56,21.20
2008,08,04,12,57,21.30
2008,08,04,12,58,21.30
2008,08,04,12,59,21.20
2008,08,04,13,00,21.20
2008,08,04,13,01,21.20
2008,08,04,13,02,21.20
2008,08,04,13,03,21.30
2008,08,04,13,04,21.40
2008,08,04,13,05,21.30
2008,08,04,13,06,21.40
2008,08,04,13,07,21.40
2008,08,04,13,08,21.50
2008,08,04,13,09,21.60
2008,08,04,13,10,21.70
2008,08,04,13,11,21.70
2008,08,04,13,12,21.80
2008,08,04,13,13,21.70
2008,08,04,13,14,21.70
2008,08,04,13,15,21.60
2008,08,04,13,16,21.50
2008,08,04,13,17,21.50
2008,08,04,13,18,21.60
2008,08,04,13,19,21.70
2008,08,04,13,20,21.60
2008,08,04,13,21,21.50
2008,08,04,13,22,21.50
2008,08,04,13,23,21.60
2008,08,04,13,24,21.70
2008,08,04,13,25,21.70
2008,08,04,13,26,21.70
2008,08,04,13,27,21.80
2008,08,04,13,28,21.90
2008,08,04,13,29,21.90
2008,08,04,13,30,21.90
2008,08,04,13,31,21.90
2008,08,04,13,32,21.80
2008,08,04,13,33,21.80
2008,08,04,13,34,21.90
2008,08,04,13,35,22.10
2008,08,04,13,36,22.20
2008,08,04,13,37,22.20
2008,08,04,13,38,22.20
2008,08,04,13,39,22.20
2008,08,04,13,40,22.20
2008,08,04,13,41,22.20
2008,08,04,13,42,22.20
2008,08,04,13,43,22.10
2008,08,04,13,44,22.10
2008,08,04,13,45,21.90
2008,08,04,13,46,21.90
2008,08,04,13,47,22.00
2008,08,04,13,48,22.10
2008,08,04,13,49,22.00
2008,08,04,13,50,21.80
2008,08,04,13,51,21.80
2008,08,04,13,52,21.80
2008,08,04,13,53,21.80
2008,08,04,13,54,21.70
2008,08,04,13,55,21.70
2008,08,04,13,56,21.80
2008,08,04,13,57,21.80
2008,08,04,13,58,21.80
2008,08,04,13,59,21.90
2008,08,04,14,00,22.00
2008,08,04,14,01,22.00
2008,08,04,14,02,22.00
2008,08,04,14,03,22.00
2008,08,04,14,04,22.00
2008,08,04,14,05,21.90
2008,08,04,14,06,21.80
2008,08,04,14,07,21.80
2008,08,04,14,08,21.80
2008,08,04,14,09,21.80
2008,08,04,14,10,21.90
2008,08,04,14,11,21.90
2008,08,04,14,12,21.90
2008,08,04,14,13,21.90
2008,08,04,14,14,22.00
2008,08,04,14,15,22.00
2008,08,04,14,16,22.10
2008,08,04,14,17,22.10
2008,08,04,14,18,22.10
2008,08,04,14,19,22.20
2008,08,04,14,20,22.30
2008,08,04,14,21,22.30
2008,08,04,14,22,22.40
2008,08,04,14,23,22.50
2008,08,04,14,24,22.60
2008,08,04,14,25,22.50
2008,08,04,14,26,22.50
2008,08,04,14,27,22.50
2008,08,04,14,28,22.50
2008,08,04,14,29,22.60
2008,08,04,14,30,22.70
2008,08,04,14,31,22.70
2008,08,04,14,32,22.70
2008,08,04,14,33,22.80
2008,08,04,14,34,22.80
2008,08,04,14,35,22.80
2008,08,04,14,36,22.80
2008,08,04,14,37,22.80
2008,08,04,14,38,22.80
2008,08,04,14,39,22.70
2008,08,04,14,40,22.70
2008,08,04,14,41,22.80
2008,08,04,14,42,22.80
2008,08,04,14,43,22.80
2008,08,04,14,44,22.80
2008,08,04,14,45,22.80
2008,08,04,14,46,22.70
2008,08,04,14,47,22.60
2008,08,04,14,48,22.60
2008,08,04,14,49,22.60
2008,08,04,14,50,22.60
2008,08,04,14,51,22.40
2008,08,04,14,52,22.40
2008,08,04,14,53,22.30
2008,08,04,14,54,22.40
2008,08,04,14,55,22.40
2008,08,04,14,56,22.40
2008,08,04,14,57,22.40
2008,08,04,14,58,22.40
2008,08,04,14,59,22.50
2008,08,04,15,00,22.60
2008,08,04,15,01,22.50
2008,08,04,15,02,22.50
2008,08,04,15,03,22.50
2008,08,04,15,04,22.50
2008,08,04,15,05,22.60
2008,08,04,15,06,22.70
2008,08,04,15,07,22.70
2008,08,04,15,08,22.80
2008,08,04,15,09,22.80
2008,08,04,15,10,22.80
2008,08,04,15,11,22.70
2008,08,04,15,12,22.70
2008,08,04,15,13,22.80
2008,08,04,15,14,22.90
2008,08,04,15,15,22.90
2008,08,04,15,16,23.00
2008,08,04,15,17,23.10
2008,08,04,15,18,23.10
2008,08,04,15,19,23.00
2008,08,04,15,20,23.00
2008,08,04,15,21,22.90
2008,08,04,15,22,22.90
2008,08,04,15,23,22.90
2008,08,04,15,24,23.00
2008,08,04,15,25,23.00
2008,08,04,15,26,23.10
2008,08,04,15,27,23.20
2008,08,04,15,28,23.20
2008,08,04,15,29,23.20
2008,08,04,15,30,23.20
2008,08,04,15,31,23.20
2008,08,04,15,32,23.30
2008,08,04,15,33,23.30
2008,08,04,15,34,23.30
2008,08,04,15,35,23.40
2008,08,04,15,36,23.40
2008,08,04,15,37,23.30
2008,08,04,15,38,23.30
2008,08,04,15,39,23.30
2008,08,04,15,40,23.20
2008,08,04,15,41,23.20
2008,08,04,15,42,23.20
2008,08,04,15,43,23.20
2008,08,04,15,44,23.30
2008,08,04,15,45,23.40
2008,08,04,15,46,23.50
2008,08,04,15,47,23.60
2008,08,04,15,48,23.70
2008,08,04,15,49,23.60
2008,08,04,15,50,23.50
2008,08,04,15,51,23.50
2008,08,04,15,52,23.60
2008,08,04,15,53,23.60
2008,08,04,15,54,23.70
2008,08,04,15,55,23.80
2008,08,04,15,56,23.80
2008,08,04,15,57,23.70
2008,08,04,15,58,23.50
2008,08,04,15,59,23.40
2008,08,04,16,00,23.40
2008,08,04,16,01,23.40
2008,08,04,16,02,23.40
2008,08,04,16,03,23.50
2008,08,04,16,04,23.40
2008,08,04,16,05,23.40
2008,08,04,16,06,23.40
2008,08,04,16,07,23.50
2008,08,04,16,08,23.50
2008,08,04,16,09,23.50
2008,08,04,16,10,23.60
2008,08,04,16,11,23.60
2008,08,04,16,12,23.60
2008,08,04,16,13,23.60
2008,08,04,16,14,23.60
2008,08,04,16,15,23.60
2008,08,04,16,16,23.70
2008,08,04,16,17,23.60
2008,08,04,16,18,23.60
2008,08,04,16,19,23.50
2008,08,04,16,20,23.50
2008,08,04,16,21,23.40
2008,08,04,16,22,23.40
2008,08,04,16,23,23.40
2008,08,04,16,24,23.50
2008,08,04,16,25,23.60
2008,08,04,16,26,23.60
2008,08,04,16,27,23.70
2008,08,04,16,28,23.70
2008,08,04,16,29,23.70
2008,08,04,16,30,23.70
2008,08,04,16,31,23.80
2008,08,04,16,32,23.80
2008,08,04,16,33,23.80
2008,08,04,16,34,23.80
2008,08,04,16,35,23.80
2008,08,04,16,36,23.70
2008,08,04,16,37,23.80
2008,08,04,16,38,23.90
2008,08,04,16,39,23.90
2008,08,04,16,40,23.90
2008,08,04,16,41,24.00
2008,08,04,16,42,24.00
2008,08,04,16,43,24.00
2008,08,04,16,44,24.00
2008,08,04,16,45,24.20
2008,08,04,16,46,24.40
2008,08,04,16,47,24.50
2008,08,04,16,48,24.60
2008,08,04,16,49,24.70
2008,08,04,16,50,24.60
2008,08,04,16,51,24.50
2008,08,04,16,52,24.50
2008,08,04,16,53,24.40
2008,08,04,16,54,24.40
2008,08,04,16,55,24.50
2008,08,04,16,56,24.50
2008,08,04,16,57,24.60
2008,08,04,16,58,24.60
2008,08,04,16,59,24.60
2008,08,04,17,00,24.60
2008,08,04,17,01,24.60
2008,08,04,17,02,24.60
2008,08,04,17,03,24.60
2008,08,04,17,04,24.60
2008,08,04,17,05,24.70
2008,08,04,17,06,24.60
2008,08,04,17,07,24.60
2008,08,04,17,08,24.60
2008,08,04,17,09,24.60
2008,08,04,17,10,24.50
2008,08,04,17,11,24.40
2008,08,04,17,12,24.40
2008,08,04,17,13,24.30
2008,08,04,17,14,24.30
2008,08,04,17,15,24.30
2008,08,04,17,16,24.30
2008,08,04,17,17,24.30
2008,08,04,17,18,24.40
2008,08,04,17,19,24.30
2008,08,04,17,20,24.30
2008,08,04,17,21,24.30